Regional Weather Roundup
Issued by NWS Upton, NY

Current Version | Previous Version | Graphics & Text | Print | Product List | Glossary Off
Versions: 1 2 3 4 5 6 7 8 9 10 11 12 13 14 15 16 17 18 19 20 21 22 23 24 25 26 27 28 29 30 31 32 33 34 35 36 37 38 39 40 41 42 43 44 45 46 47 48 49 50

000
ASUS41 KOKX 312305
RWROKX
REGIONAL WEATHER ROUNDUP
NATIONAL WEATHER SERVICE NEW YORK NY
700 PM EDT SUN AUG 31 2014

NOTE: "FAIR" INDICATES FEW OR NO CLOUDS BELOW 12,000 FEET WITH NO
SIGNIFICANT WEATHER AND/OR OBSTRUCTIONS TO VISIBILITY.

NYZ071-072-176-178-NJZ106-104-010000-
NEW YORK CITY METRO AREA


CITY           SKY/WX    TMP DP  RH WIND       PRES   REMARKS
CENTRAL PARK   PTCLDY    76  73  91 CALM      30.01R FOG
LAGUARDIA APRT MOCLDY    78  73  84 VRB3      29.97S
KENNEDY INTL   MOCLDY    78  73  84 SE5       29.99S
NEWARK/LIBERTY CLOUDY    80  73  79 W8        29.97S
BRNX BOT. GARD   N/A     73  72  94 SE2       29.98S
TETERBORO      MOCLDY    78  72  81 CALM      29.96S
$$

NYZ177-179-078>081-010000-
LONG ISLAND NEW YORK

CITY           SKY/WX    TMP DP  RH WIND       PRES   REMARKS
FARMINGDALE    CLOUDY    76  73  91 SW10      29.99F
ISLIP          LGT RAIN  77  72  84 SW10      29.98F
SHIRLEY        CLOUDY    77  72  84 S7        30.01R
WESTHAMPTON    CLOUDY    76  71  85 W18       30.03R
MONTAUK POINT    N/A     74  71  91 S9G18     30.02S
$$

NYZ052-065-067-010000-
HUDSON VALLEY

CITY           SKY/WX    TMP DP  RH WIND       PRES   REMARKS
WHITE PLAINS   PTCLDY    74  70  87 CALM      29.99R
NEWBURGH       MOCLDY    72  72 100 CALM      30.00S
MONTGOMERY     CLOUDY    73  71  93 S5        29.98R
POUGHKEEPSIE   CLOUDY    73  70  90 S3        29.96F
ALBANY         CLOUDY    76  71  85 S8        29.95S
$$

NJZ001-105-106-008-010-013-015-019>022-104-010000-
NEW JERSEY

CITY           SKY/WX    TMP DP  RH WIND       PRES   REMARKS
NEWARK/LIBERTY CLOUDY    80  73  79 W8        29.97S
TETERBORO      MOCLDY    78  72  81 CALM      29.96S
CALDWELL       MOCLDY    77  73  87 CALM      29.98R
MORRISTOWN     CLOUDY    79  73  83 W5        29.98S
SOMERVILLE     CLOUDY    78  73  84 CALM      29.98R
LINDEN         FAIR      85  76  74 W6        29.99R HX  93
SUSSEX         CLOUDY    77  73  87 CALM      30.00R
ANDOVER          N/A     74  72  93 CALM      30.01R
TRENTON        LGT RAIN  78  72  81 SW5       29.99R
MILLVILLE      CLEAR    N/A N/A N/A S6        30.01R
ATLANTIC CITY  CLEAR     80  71  74 S12       30.01R
WRIGHTSTOWN    CLOUDY    81  72  75 W5        29.97R
TOMS RIVER     PTCLDY    81  72  74 S9        29.99S
BELMAR         MOCLDY    79  70  73 S7G22     30.00R THUNDER
$$

PAZ047>061-062-071-010000-
EASTERN PENNSYLVANIA

CITY           SKY/WX    TMP DP  RH WIND       PRES   REMARKS
PHILADELPHIA   TSTM      73  71  93 S5        30.01R FOG
ALLENTOWN      CLOUDY    76  70  82 SW5       30.00S
SCRANTON       CLOUDY    75  70  84 SW6       30.01F
$$

CTZ002-004>006-009-010-012-RIZ004-006-007-MAZ004-011-015-010000-
SOUTHERN NEW ENGLAND
 IN CT

CITY           SKY/WX    TMP DP  RH WIND       PRES   REMARKS
BRADLEY INTL   RAIN      75  71  87 S12       29.95R
HARTFORD       CLOUDY    77  74  90 S7        29.96S
DANBURY        LGT RAIN  76  73  91 N12G18    30.00R
WTRBRY/OXFORD  CLOUDY    73  70  88 S5        30.02F
BRIDGEPORT     CLOUDY    77  73  87 SW9       29.97S
MERIDEN        LGT RAIN  72  70  93 SE5       29.98S FOG
NEW HAVEN      CLOUDY    78  74  87 SW3       29.98R THUNDER
CHESTER        RAIN      75  73  94 S8        29.99F
GROTON         CLOUDY    73  71  93 S6        29.99F
WILLIMANTIC    RAIN      76  74  93 S8        29.98F FOG

 IN RI

CITY           SKY/WX    TMP DP  RH WIND       PRES   REMARKS
PROVIDENCE     CLOUDY    76  72  87 S13       30.00S
BLOCK ISLAND   MOCLDY    72  68  88 S12G17    30.01F
WESTERLY       CLOUDY    74  71  91 S12       30.01F

 IN MA

CITY           SKY/WX    TMP DP  RH WIND       PRES   REMARKS
BOSTON         CLOUDY    81  71  71 S12       29.95F
WORCESTER      CLOUDY    76  69  79 S9        30.00F
WESTFIELD      LGT RAIN  76  72  87 S5        29.96S
PROVINCETOWN   CLOUDY    72  70  94 SW17      30.00S
NANTUCKET      PTCLDY    70  68  93 S12       30.04S FOG
$$

ANZ330-335-338-340-345-350-353-355-010000-
COASTAL MARINE OBSERVATIONS


STATION/POSITION TIME  SKY/WX   TEMP    WIND        PRES    VSBY  WAVE
                                AIR SEA DIR/SP/G                  HT/PER
                 (UTC)          (F)     (DEG/KT/KT) (MB)    (MI)  (FT/S)
NY HARB ENTRANCE NOT AVBL
4S FIRE IS       NOT AVBL
23SW MTP         2300                                 N/A           4/ 5
HUDSON CANYON    2300            75 74  200/ 16/ 19 1017.2          4/10
EXECUTION ROCKS  2300            75 74  200/  6/ 10   N/A
WESTERN LI SOUND 2300            76     190/  8/ 10   N/A           1
CENTRAL LI SOUND 2200            75 73  200/ 14/ 17   N/A           1/ 3
EASTERN LI SOUND 2200            72 69  210/ 10/ 12   N/A
ROBBINS REEF     2200            76     100/  4/  5   N/A
$$


>>>>>>>>>>>>>>>>>>>>>>>>>>>> KEY <<<<<<<<<<<<<<<<<<<<<<<<<<<
>                                                          <
>     SKY/WX - SKY CONDITION/PRESENT WEATHER               <
>     TMP    - TEMPERATURE IN FAHRENHEIT                   <
>     DP     - DEWPOINT IN FAHRENHEIT                      <
>     RH     - RELATIVE HUMIDITY IN PERCENT                <
>     WIND   - DIRECTION AND SPEED IN MPH                  <
>     PRES   - MEAN SEA LEVEL PRESSURE IN INCHES OF HG     <
>     WCI    - WIND CHILL INDEX                            <
>     VSB    - VISIBILITY IN MILES                         <
>     HX     - HEAT INDEX                                  <
>     TC     - TEMPERATURE IN CELSIUS                      <
>     VRB    - VARIABLE WIND DIRECTION                     <
>                                                          <
>>>>>>>>>>>>>>>>>>>>>>>>>>>> KEY <<<<<<<<<<<<<<<<<<<<<<<<<<<




USA.gov is the U.S. government's official web portal to all federal, state and local government web resources and services.